| time (UTC) | temp F | wind direction | speed MPH | gust MPH | rain 1hr in | rain 24hr in | rain mn in | humidity % | barometer mb |
| 20260504193010 | 81 | 207 | 4.0 | 14.0 | 0.00 | 0.00 | 0.00 | 41 | 1001.7 |
| 20260504191505 | 80 | 189 | 8.0 | 15.0 | 0.00 | 0.00 | 0.00 | 43 | 1001.7 |
| 20260504190003 | 79 | 211 | 10.0 | 16.0 | 0.00 | 0.00 | 0.00 | 43 | 1001.8 |
| 20260504184508 | 80 | 139 | 8.0 | 12.0 | 0.00 | 0.00 | 0.00 | 43 | 1001.8 |
| 20260504183100 | 79 | 199 | 8.0 | 17.0 | 0.00 | 0.00 | 0.00 | 43 | 1001.9 |
| 20260504181602 | 78 | 190 | 6.0 | 17.0 | 0.00 | 0.00 | 0.00 | 45 | 1001.9 |
| 20260504180056 | 78 | 196 | 9.0 | 14.0 | 0.00 | 0.00 | 0.00 | 44 | 1002.2 |
| 20260504174554 | 78 | 207 | 8.0 | 16.0 | 0.00 | 0.00 | 0.00 | 44 | 1002.1 |
| 20260504173051 | 77 | 196 | 9.0 | 13.0 | 0.00 | 0.00 | 0.00 | 45 | 1002.3 |
| 20260504171549 | 76 | 164 | 5.0 | 13.0 | 0.00 | 0.00 | 0.00 | 47 | 1002.4 |
| 20260504081545 | 64 | 71 | 0.0 | 2.0 | 0.00 | 0.00 | 0.00 | 57 | 1005.1 |
| 20260504050017 | 69 | 132 | 6.0 | 11.0 | 0.00 | 0.00 | 0.00 | 47 | 1006.3 |
| 20260504044515 | 69 | 154 | 5.0 | 11.0 | 0.00 | 0.00 | 0.00 | 47 | 1006.7 |
| 20260504043013 | 69 | 103 | 8.0 | 16.0 | 0.00 | 0.00 | 0.00 | 46 | 1007.1 |
| 20260504041512 | 68 | 41 | 6.0 | 11.0 | 0.00 | 0.00 | 0.00 | 52 | 1008.2 |
| 20260504040014 | 67 | 340 | 5.0 | 10.0 | 0.00 | 0.00 | 0.00 | 59 | 1008.5 |
| 20260504034517 | 66 | 261 | 0.0 | 5.0 | 0.00 | 0.00 | 0.00 | 65 | 1007.7 |
| 20260504033009 | 67 | 253 | 2.0 | 3.0 | 0.00 | 0.00 | 0.00 | 64 | 1008.0 |
| 20260504031509 | 67 | 89 | 1.0 | 2.0 | 0.00 | 0.00 | 0.00 | 63 | 1007.7 |
| 20260504030008 | 67 | 322 | 0.0 | 3.0 | 0.00 | 0.00 | 0.00 | 60 | 1008.2 |
| 20260504024509 | 68 | 250 | 0.0 | 0.0 | 0.00 | 0.00 | 0.00 | 63 | 1007.9 |
| 20260504023007 | 68 | 250 | 0.0 | 1.0 | 0.00 | 0.00 | 0.00 | 62 | 1007.8 |
| 20260504021506 | 69 | 249 | 0.0 | 2.0 | 0.00 | 0.00 | 0.00 | 60 | 1007.6 |
| 20260504020005 | 70 | 10 | 0.0 | 0.0 | 0.00 | 0.00 | 0.00 | 57 | 1007.5 |
| 20260504014504 | 71 | 10 | 0.0 | 0.0 | 0.00 | 0.00 | 0.00 | 53 | 1007.5 |
| 20260504013003 | 73 | 10 | 0.0 | 1.0 | 0.00 | 0.00 | 0.00 | 49 | 1007.5 |
| 20260504011502 | 74 | 10 | 0.0 | 2.0 | 0.00 | 0.00 | 0.00 | 43 | 1007.5 |
| 20260504010105 | 75 | 358 | 0.0 | 2.0 | 0.00 | 0.00 | 0.00 | 43 | 1007.4 |
| 20260504004600 | 76 | 358 | 0.0 | 2.0 | 0.00 | 0.00 | 0.00 | 41 | 1007.6 |
| 20260504003058 | 77 | 358 | 1.0 | 3.0 | 0.00 | 0.00 | 0.00 | 40 | 1007.7 |
| 20260504001558 | 77 | 358 | 1.0 | 3.0 | 0.00 | 0.00 | 0.00 | 38 | 1007.8 |
| 20260504000135 | 78 | 345 | 2.0 | 5.0 | 0.00 | 0.00 | 0.00 | 38 | 1008.0 |
| 20260503234554 | 78 | 335 | 2.0 | 6.0 | 0.00 | 0.00 | 0.00 | 37 | 1008.1 |
| 20260503233053 | 79 | 287 | 1.0 | 5.0 | 0.00 | 0.00 | 0.00 | 36 | 1008.2 |
| 20260503231552 | 79 | 294 | 3.0 | 7.0 | 0.00 | 0.00 | 0.00 | 35 | 1008.3 |
| 20260503230054 | 79 | 256 | 2.0 | 7.0 | 0.00 | 0.00 | 0.00 | 34 | 1008.5 |
| 20260503224548 | 80 | 247 | 1.0 | 9.0 | 0.00 | 0.00 | 0.00 | 34 | 1008.7 |
| 20260503223048 | 81 | 277 | 4.0 | 10.0 | 0.00 | 0.00 | 0.00 | 33 | 1008.7 |
| 20260503221546 | 80 | 345 | 2.0 | 7.0 | 0.00 | 0.00 | 0.00 | 34 | 1008.8 |
| 20260503220046 | 80 | 232 | 2.0 | 9.0 | 0.00 | 0.00 | 0.00 | 35 | 1008.9 |
| 20260503214543 | 80 | 261 | 4.0 | 11.0 | 0.00 | 0.00 | 0.00 | 34 | 1009.1 |
| 20260503213042 | 80 | 296 | 3.0 | 7.0 | 0.00 | 0.00 | 0.00 | 36 | 1009.3 |
| 20260503211540 | 80 | 239 | 6.0 | 11.0 | 0.00 | 0.00 | 0.00 | 34 | 1009.5 |
| 20260503210038 | 80 | 245 | 5.0 | 12.0 | 0.00 | 0.00 | 0.00 | 35 | 1009.7 |
| 20260503204535 | 79 | 275 | 3.0 | 10.0 | 0.00 | 0.00 | 0.00 | 35 | 1009.9 |
| 20260503203036 | 79 | 247 | 6.0 | 15.0 | 0.00 | 0.00 | 0.00 | 36 | 1010.1 |
| 20260503201532 | 79 | 224 | 5.0 | 13.0 | 0.00 | 0.00 | 0.00 | 37 | 1010.2 |
| 20260503200030 | 79 | 335 | 6.0 | 13.0 | 0.00 | 0.00 | 0.00 | 36 | 1010.4 |
| 20260503194529 | 78 | 224 | 3.0 | 13.0 | 0.00 | 0.00 | 0.00 | 36 | 1010.5 |